Oak Ridge, TN

4:00 AM EDT on October 21, 2017 (GMT -0400)
Oak Ridge

Weather History for KOQT - January, 2013

Change the Weather History Date:

Wednesday, January 23, 2013

  Actual Average (KTYS) Record (KTYS)
Temperature  
Mean Temperature 35 °F -  
Max Temperature 46 °F 48 °F 72 °F (1999)
Min Temperature 24 °F 29 °F 2 °F (1936)
Degree Days  
Heating Degree Days 30    
Moisture  
Dew Point 11 °F    
Average Humidity 40    
Maximum Humidity 66    
Minimum Humidity 27    
Precipitation  
Precipitation 0.00 in - - ()
Sea Level Pressure  
Sea Level Pressure 30.32 in    
Wind  
Wind Speed 3 mph (SW)    
Max Wind Speed 8 mph    
Max Gust Speed -    
Visibility 10 miles    
Events      
Averages and records for this station are not official NWS values.
T = Trace of Precipitation, MM = Missing Value Source: NWS Daily Summary

Daily Weather History Graph

Daily Weather History Graph

Search for Another Location

Airport or City:

Trip Planner

Search our weather history database for the weather conditions in past years. The results will help you decide how hot, cold, wet, or windy it might be!

Date:

Astronomy

Jan. 23, 2013 Rise Set
Actual Time 7:43 AM EST 5:54 PM EST
Civil Twilight 7:15 AM EST 6:22 PM EST
Nautical Twilight 6:44 AM EST 6:53 PM EST
Astronomical Twilight 6:14 AM EST 7:23 PM EST
Moon 3:05 PM EST (1/23) 4:52 AM EST (1/23)
Length of Visible Light 11h 06m
Length of Day
10h 11m
Waxing Gibbous, 89% of the Moon is Illuminated
Jan 23
Waxing Gibbous
Jan 26
Full
Feb 3
Last Quarter
Feb 10
New
Feb 17
First Quarter

Hourly Weather History & Observations

Time (EST) Temp. Windchill Dew Point Humidity Pressure Visibility Wind Dir Wind Speed Gust Speed Precip Events Conditions
12:53 AM 28.0 °F 22.8 °F -2.0 °F 27% 30.41 in 10.0 mi West 4.6 mph - N/A   Overcast
1:53 AM 28.0 °F 24.2 °F -0.0 °F 30% 30.40 in 10.0 mi SW 3.5 mph - N/A   Overcast
2:53 AM 28.0 °F - -0.0 °F 30% 30.40 in 10.0 mi Calm Calm - N/A   Overcast
3:53 AM 28.0 °F 22.8 °F 1.0 °F 31% 30.40 in 10.0 mi SW 4.6 mph - N/A   Overcast
4:53 AM 27.0 °F - 1.0 °F 33% 30.40 in 10.0 mi Calm Calm - N/A   Clear
5:53 AM 25.0 °F - 3.9 °F 41% 30.40 in 10.0 mi Calm Calm - N/A   Partly Cloudy
6:53 AM 24.1 °F - 6.1 °F 46% 30.42 in 10.0 mi Calm Calm - N/A   Clear
7:53 AM 24.1 °F - 9.0 °F 53% 30.42 in 10.0 mi Calm Calm - N/A   Overcast
8:53 AM 27.0 °F - 6.1 °F 41% 30.42 in 10.0 mi Calm Calm - N/A   Clear
9:53 AM 30.9 °F 27.5 °F 3.9 °F 32% 30.43 in 10.0 mi SW 3.5 mph - N/A   Clear
10:53 AM 33.1 °F 27.7 °F 6.1 °F 32% 30.43 in 10.0 mi SSW 5.8 mph - N/A   Clear
11:53 AM 36.0 °F 30.3 °F 9.0 °F 33% 30.39 in 10.0 mi Variable 6.9 mph - N/A   Clear
12:53 PM 39.0 °F 35.7 °F 12.0 °F 33% 30.34 in 10.0 mi Variable 4.6 mph - N/A   Clear
1:53 PM 42.1 °F 37.1 °F 12.9 °F 31% 30.30 in 10.0 mi SW 8.1 mph - N/A   Clear
2:53 PM 44.1 °F 39.5 °F 15.1 °F 31% 30.27 in 10.0 mi SSW 8.1 mph - N/A   Clear
3:53 PM 46.0 °F 43.1 °F 16.0 °F 30% 30.23 in 10.0 mi WSW 5.8 mph - N/A   Clear
4:53 PM 45.0 °F 42.6 °F 18.0 °F 34% 30.23 in 10.0 mi Variable 4.6 mph - N/A   Clear
5:53 PM 43.0 °F 41.3 °F 19.0 °F 38% 30.22 in 10.0 mi Variable 3.5 mph - N/A   Clear
6:53 PM 39.0 °F - 19.0 °F 45% 30.21 in 10.0 mi Calm Calm - N/A   Clear
7:53 PM 37.9 °F - 19.9 °F 48% 30.21 in 10.0 mi Calm Calm - N/A   Clear
8:53 PM 32.0 °F - 21.9 °F 66% 30.20 in 10.0 mi Calm Calm - N/A   Clear
9:53 PM 34.0 °F 31.0 °F 21.0 °F 59% 30.19 in 10.0 mi SW 3.5 mph - N/A   Clear
10:53 PM 35.1 °F - 21.0 °F 57% 30.19 in 10.0 mi Calm Calm - N/A   Partly Cloudy
11:53 PM 36.0 °F 31.1 °F 23.0 °F 59% 30.19 in 10.0 mi SSW 5.8 mph - N/A   Overcast